Regional Weather Roundup
Issued by NWS Binghamton, NY

Home | Current Version | Previous Version | Text Only | Print | Product List | Glossary On
Versions: 1 2 3 4 5 6 7 8 9 10 11 12 13 14 15 16 17 18 19 20 21 22 23 24 25 26 27 28 29 30 31 32 33 34 35 36 37 38 39 40 41 42 43 44 45 46 47 48 49 50
000
ASUS41 KBGM 252010
RWRBGM
RWRBGM
BINGHAMTON REGIONAL WEATHER ROUNDUP
NATIONAL WEATHER SERVICE BINGHAMTON NY
400 PM EDT FRI JUL 25 2014

Note: "fair" indicates few or no clouds below 12,000 feet with no
significant weather and/or obstructions to visibility.

* = Station(s) that does not report precipitation, such as rain,
snow, etc, also no thunder or fog.

!NYZ009-015>018-022>025-036-037-044>046-055>057-062-252100
...CENTRAL NEW YORK...

CITY           SKY/WX    TMP DP  RH WIND       PRES   REMARKS
BINGHAMTON     SUNNY     73  54  51 CALM      30.02F
CORTLAND       FAIR      72  52  49 CALM      30.03F
DANSVILLE      SUNNY     77  51  40 W3        30.00F
ELMIRA         SUNNY     77  51  40 CALM      30.01S
ITHACA         MOSUNNY   75  52  44 CALM      30.03F
HAMILTON       PTCLDY    75  52  43 N6        30.01F
MONTICELLO     MOSUNNY   75  54  46 W6        30.03F
NORWICH        MOSUNNY   73  54  49 CALM      30.01F
ONEONTA        MOSUNNY   72  54  53 W5        30.03F
PENN YAN       SUNNY     75  52  44 CALM      30.02S
ROME           SUNNY     75  54  47 SW8       30.00F
SIDNEY         MOSUNNY   77  57  50 CALM      30.00F
SYRACUSE       MOSUNNY   78  52  40 NW7       29.98F
$$

!PAZ038>040-043-044-047-048-072-252100
...NORTHEAST PENNSYLVANIA...

CITY           SKY/WX    TMP DP  RH WIND       PRES   REMARKS
HAZLETON       SUNNY     73  48  40 NW3       30.05F
SCRANTON       SUNNY     80  47  31 VRB3      30.00F
TOWANDA*       SUNNY     79  48  34 CALM      30.01S
$$
&&
KEY
WCI = WIND CHILL INDEX
VSB = VISIBILITY
HX  = HEAT INDEX
$$


USA.gov is the U.S. government's official web portal to all federal, state and local government web resources and services.